Location: Alfortville
(48.8058°N, 2.4204°E)
Time: 03:19:01
(UTC+00:00)

Envisat - Pass Details

Date: 26 November 2022
Orbit: 763 x 765 km, 98.2° (Epoch: 28 January)

Event Time Altitude Azimuth Distance (km) Brightness Sun altitude
Rises 16:40:09 0° 217° (SW) 3,221 7.5 -6.7°
Reaches altitude 10° 16:43:40 10° 243° (WSW) 2,302 7.3 -7.3°
Maximum altitude 16:46:12 14° 274° (W) 2,054 6.3 -7.6°
Drops below altitude 10° 16:48:45 10° 304° (NW) 2,311 6.0 -8.0°
Sets 16:52:19 0° 330° (NNW) 3,244 6.4 -8.6°
